Theta_e
301 301 297 298 297 296 296 296 295 295 295 294 295 295 294 294 294 294 294 294 293 293 293 292 293 292 293 293 293 293 293 293 293 293 294 294 296 300 305 309 312 315 317 319 320 320 321 320 321 320 320 320 320 320 320 320 320 320 321 322 321 320 320 320 319 319 319 320 321 321 322 322 322 323 323 324 324 325 325 326 327 329 330 331 332
300 298 296 296 295 295 295 294 294 294 294 294 294 294 294 293 293 293 293 293 293 293 292 292 292 292 292 292 292 292 292 293 293 293 293 294 295 297 301 306 311 314 315 316 317 318 320 320 320 319 319 319 319 319 319 320 320 319 320 321 320 320 319 319 319 318 318 319 319 320 321 320 321 321 321 322 322 323 324 324 325 326 327 328 329
298 296 296 294 294 294 294 293 293 293 294 294 293 294 293 293 294 293 293 293 293 293 291 291 291 291 291 292 292 292 292 292 293 293 293 293 294 296 299 303 307 310 312 313 314 316 318 318 317 317 319 319 319 319 318 319 319 319 319 319 319 319 319 318 318 318 317 318 318 318 319 319 319 320 320 321 321 322 322 323 324 324 325 326 327
298 295 295 293 293 292 293 293 293 293 293 293 293 293 293 292 292 292 292 293 292 291 291 291 290 290 291 291 291 292 292 292 292 292 293 293 294 295 297 299 302 306 309 311 312 312 313 313 314 315 317 318 318 318 318 317 317 316 317 317 318 318 317 316 317 316 316 317 317 318 318 318 318 319 319 320 320 321 321 321 322 323 323 324 325
296 295 295 293 293 292 292 293 293 293 293 293 293 293 292 292 292 291 291 291 291 290 290 290 290 290 290 290 291 291 291 292 292 292 293 294 294 294 296 297 298 300 304 306 307 308 309 310 312 313 314 315 317 317 316 315 315 316 316 316 316 316 316 315 315 315 315 316 317 317 317 317 318 318 318 318 319 319 319 320 320 321 321 322 322
296 295 294 293 292 292 292 292 292 293 293 293 292 292 292 292 291 291 291 291 290 290 289 290 289 289 290 290 291 290 291 291 291 292 292 293 293 294 295 295 296 296 298 301 304 305 306 308 309 310 311 313 314 315 315 315 315 315 315 314 315 315 315 315 315 315 315 315 316 316 316 316 317 317 318 317 318 319 319 319 319 319 320 320 320
296 294 293 292 292 291 291 292 292 292 292 292 292 292 291 291 291 290 291 290 291 290 290 290 289 289 289 290 290 290 291 291 291 292 292 292 293 293 294 295 294 294 294 296 299 300 302 304 307 308 309 310 311 312 313 314 314 314 314 314 313 314 314 314 314 314 314 315 315 315 315 315 315 316 316 316 316 317 317 318 318 318 318 319 319
295 295 293 292 291 291 291 291 292 292 292 291 291 291 290 290 291 291 289 289 290 289 290 289 289 289 289 289 290 290 290 291 291 291 291 292 292 293 293 293 294 293 292 293 295 297 298 299 303 305 306 306 307 309 310 313 313 313 313 314 313 313 313 312 313 314 314 313 313 314 314 314 314 314 314 315 315 316 316 317 317 317 318 318 318
295 295 293 292 291 291 290 291 292 292 291 291 291 291 290 290 289 289 290 290 291 290 289 289 289 289 289 289 290 290 291 291 291 290 291 292 291 291 292 292 292 291 292 291 292 293 294 296 297 300 301 303 305 305 307 311 312 313 313 313 312 312 312 312 312 313 313 312 313 313 313 313 313 313 314 314 314 314 315 315 315 315 315 316 316
294 294 294 292 292 291 290 290 291 291 291 290 291 291 290 290 289 289 288 290 289 289 289 289 289 289 288 288 289 290 290 291 291 290 291 290 291 291 291 291 291 291 291 291 291 291 291 292 293 295 297 299 302 303 304 307 310 312 312 312 311 311 311 311 311 311 311 311 311 311 312 312 312 312 312 312 313 313 313 313 314 314 314 315 315
294 294 293 292 291 290 289 290 291 290 290 290 290 289 289 289 289 288 288 289 290 290 289 289 288 288 288 287 288 289 289 289 289 290 290 291 291 290 291 290 290 290 290 290 290 290 290 291 290 291 293 295 298 300 301 304 307 309 310 311 311 311 310 309 310 310 310 310 310 310 310 310 311 311 311 311 311 312 312 312 313 313 314 314 315
294 294 294 292 291 289 289 290 290 290 290 289 289 289 289 288 289 289 289 288 288 288 289 289 288 288 288 288 289 289 288 288 289 289 289 290 290 290 290 289 290 289 289 290 290 290 289 289 290 290 291 291 293 295 296 299 302 305 308 310 310 310 309 309 309 309 308 309 309 309 309 309 310 310 310 310 311 311 311 312 312 312 312 313 313
294 293 293 292 291 290 289 289 290 290 290 290 290 290 289 289 289 289 288 288 287 287 288 289 289 286 288 288 288 289 290 288 288 289 289 289 289 289 289 289 289 289 289 289 289 289 289 289 289 289 290 290 289 291 292 294 297 303 307 308 309 309 309 309 309 308 307 307 307 307 308 308 308 308 309 309 310 310 310 310 311 311 311 312 312
294 293 293 292 291 289 289 289 289 290 290 291 290 289 288 288 288 287 288 288 288 287 287 289 289 288 286 286 286 287 289 288 288 288 288 289 289 289 289 289 289 288 288 289 289 288 288 288 288 288 289 289 289 289 290 291 293 297 303 306 307 309 309 308 308 308 307 306 306 306 306 307 307 307 307 308 308 308 309 310 310 310 310 311 311
294 293 292 292 291 290 289 289 289 290 289 288 289 288 287 287 288 288 286 287 288 287 287 288 291 289 290 288 285 285 287 287 288 287 288 288 288 289 288 289 288 288 288 288 288 288 288 288 288 288 288 288 288 289 289 289 291 292 296 300 303 306 308 308 307 307 306 306 306 305 306 305 306 306 307 307 307 308 308 308 309 310 310 310 310
294 293 293 292 291 290 290 289 289 290 289 288 288 288 287 287 287 288 289 286 286 286 287 285 286 290 289 289 286 287 285 285 287 288 286 287 288 288 288 288 288 288 288 288 287 287 287 287 287 287 287 288 288 288 289 289 289 290 291 294 297 300 302 304 306 306 306 306 305 305 305 305 305 305 305 306 306 307 307 307 308 308 309 309 310
293 293 293 292 292 291 290 289 289 289 289 289 288 288 287 287 288 287 288 289 286 287 286 285 285 286 290 284 284 285 289 288 286 286 285 286 286 287 289 287 287 287 287 287 287 287 287 287 287 287 287 287 288 288 288 289 290 290 292 292 296 296 297 301 303 304 304 304 304 303 304 304 304 304 305 304 305 306 306 306 307 308 308 308 309
293 293 293 292 291 291 290 289 289 288 289 289 288 288 287 286 287 287 288 289 288 286 285 287 285 287 286 288 292 294 289 286 287 287 284 287 287 286 286 286 286 287 286 286 287 287 287 286 286 286 287 287 287 288 288 288 289 290 293 296 296 296 295 296 299 301 303 303 302 303 303 303 303 304 304 304 304 305 306 305 306 307 307 308 308
293 293 292 292 292 291 290 290 289 288 289 288 288 287 287 287 287 286 288 288 288 287 287 286 285 285 285 286 286 284 289 287 287 286 285 285 284 285 285 285 285 286 286 286 286 286 286 286 286 286 286 287 287 287 287 288 288 290 293 294 295 296 295 294 295 297 299 300 301 302 302 303 303 303 303 303 303 304 305 305 305 306 306 307 307
292 292 292 292 291 291 290 290 289 288 288 288 287 288 288 288 287 287 287 287 288 289 288 286 286 286 285 285 284 284 285 286 289 291 290 286 285 284 284 284 285 285 285 285 285 286 286 286 286 286 286 287 287 286 287 287 289 291 292 293 293 294 295 294 294 294 295 297 299 300 301 301 302 302 302 302 302 303 304 304 305 305 306 306 307
292 292 292 292 291 291 290 289 289 288 288 288 288 288 287 287 286 286 285 285 286 288 287 285 287 287 284 283 284 285 284 285 284 288 288 288 286 284 285 284 285 285 285 285 285 285 285 285 285 285 286 286 286 286 286 287 289 290 290 290 291 292 293 293 292 293 294 294 296 297 299 300 300 300 301 301 302 303 303 304 304 304 305 305 306
291 291 291 291 291 291 290 289 289 288 288 288 288 287 287 287 287 286 286 286 285 286 287 287 286 287 287 286 285 284 285 285 286 284 284 288 288 285 286 285 283 284 283 284 285 285 285 285 285 285 285 286 285 286 286 288 288 288 288 288 289 290 291 291 291 292 293 293 294 294 296 297 298 298 299 300 301 302 303 303 303 304 304 304 305
290 290 291 291 291 290 290 289 289 288 288 288 287 287 286 287 287 287 286 286 285 285 286 287 286 286 286 286 287 286 287 285 285 284 287 284 282 283 283 284 285 285 284 282 284 284 284 284 284 284 285 285 285 286 287 288 287 286 285 286 287 288 289 290 290 291 292 293 293 293 294 294 295 296 297 299 300 301 302 302 302 302 303 304 304
290 290 289 290 290 290 290 289 288 288 288 288 287 287 287 286 286 286 286 286 286 285 285 285 285 285 285 285 287 288 289 289 288 287 286 287 287 285 285 283 281 283 283 283 283 283 284 284 284 285 285 285 285 286 287 287 287 285 284 284 285 286 288 289 289 290 291 291 292 292 293 293 293 293 295 297 299 300 301 301 301 302 302 303 303
289 289 289 289 289 289 288 288 288 288 288 287 287 287 286 286 285 285 285 285 284 285 284 285 285 284 285 285 286 286 287 286 287 286 287 287 287 284 282 282 283 283 281 281 282 282 283 283 284 284 284 285 285 286 286 286 286 285 283 282 283 284 285 286 287 289 290 291 291 291 291 292 292 293 294 295 297 298 299 300 300 301 301 302 302
289 289 290 289 289 289 289 289 289 288 288 287 287 287 286 285 285 285 285 285 285 285 285 286 285 285 286 284 284 285 285 284 285 286 285 284 284 285 282 280 280 282 281 280 281 281 282 283 283 283 284 284 285 285 284 284 285 284 283 281 281 282 283 285 287 288 290 289 290 290 290 290 291 292 293 295 296 296 297 298 299 300 300 300 301
290 290 290 289 289 289 289 288 288 288 287 287 287 286 286 285 285 285 285 285 285 284 284 285 283 284 284 284 284 284 284 283 284 285 285 286 286 285 283 281 279 279 280 281 280 280 283 283 283 283 283 284 284 283 283 283 283 283 282 282 281 280 282 285 287 288 288 288 289 289 289 290 290 291 291 292 294 294 296 296 298 298 298 299 298
291 291 290 290 289 289 289 288 288 288 287 287 286 286 285 285 284 284 284 285 284 284 284 284 284 284 284 284 283 283 283 283 283 284 284 286 286 285 286 285 283 281 279 279 279 280 282 281 282 282 283 283 283 282 282 281 282 282 281 281 281 281 281 283 285 287 287 288 289 289 289 289 290 290 291 291 292 292 293 294 295 295 294 294 295
290 290 290 289 289 288 288 288 287 287 287 286 286 286 285 284 284 284 284 284 284 284 284 283 283 284 283 283 283 283 282 282 282 283 283 283 284 285 286 286 286 284 281 279 280 279 280 281 281 281 282 282 282 282 281 281 281 281 282 281 280 281 281 283 285 286 286 288 288 288 288 289 290 290 290 291 291 292 292 293 293 293 294 294 294
289 289 289 289 288 287 287 287 287 287 286 286 286 285 285 284 284 284 284 284 283 283 283 283 283 283 283 282 283 282 282 282 282 282 283 283 282 283 283 284 284 284 284 282 281 280 281 280 281 281 280 280 281 281 281 281 280 281 281 280 280 280 281 282 283 284 285 286 286 287 288 289 289 289 290 290 290 291 292 292 292 292 293 294 295
289 289 288 288 288 287 287 287 287 286 286 285 285 285 284 284 284 284 284 283 282 282 283 282 282 282 281 281 281 282 282 281 282 281 282 282 282 282 282 283 282 284 283 282 281 280 281 279 280 280 280 280 281 281 281 281 280 280 280 280 280 279 280 281 281 282 284 284 285 286 287 288 289 289 289 289 290 290 291 291 291 292 292 293 294
288 288 288 288 287 287 287 287 286 286 285 285 285 284 284 283 283 283 283 282 282 282 282 282 281 281 281 281 281 281 281 281 281 281 281 281 281 281 281 281 281 281 282 281 281 279 278 279 279 279 280 280 280 279 279 280 280 279 280 279 279 279 280 280 280 281 282 283 285 286 287 288 288 288 289 289 289 290 290 291 291 291 291 292 293
288 287 287 288 288 287 287 287 286 286 285 284 284 284 283 283 283 283 282 281 281 281 281 280 281 280 281 280 280 280 280 280 280 280 280 280 280 281 281 280 280 280 280 280 280 279 277 279 279 278 278 279 278 279 278 278 278 279 279 279 279 279 279 279 280 280 281 282 284 285 286 287 288 288 288 288 288 289 289 289 290 290 291 291 292
287 287 287 287 287 287 286 286 286 286 285 285 284 284 283 282 282 282 282 281 281 281 281 280 280 280 280 280 280 280 280 280 280 279 280 279 279 279 279 279 279 279 280 280 280 280 277 276 276 278 277 278 277 279 277 278 278 278 278 278 279 279 279 280 280 280 281 282 283 285 286 287 287 288 288 287 288 288 288 289 289 289 290 290 291
288 287 287 287 287 286 286 286 286 285 285 284 284 283 283 282 282 282 282 281 280 280 280 280 279 280 279 279 279 279 279 279 279 279 279 279 279 279 279 279 279 279 279 279 280 278 278 276 277 276 276 277 277 277 277 277 278 278 277 278 278 279 280 280 280 280 281 282 284 285 285 286 286 286 286 287 287 287 288 288 289 289 289 290 290
287 287 287 287 286 286 286 285 285 285 284 284 284 283 283 283 282 282 282 281 281 281 280 280 279 279 279 279 279 279 278 278 278 278 278 279 278 278 278 278 278 278 278 279 278 279 279 276 275 275 276 276 276 277 277 277 277 277 278 278 279 279 279 280 280 280 281 282 283 284 284 284 284 285 285 286 286 287 287 288 288 288 289 288 288
287 287 286 286 286 286 285 285 285 285 285 284 283 283 283 283 283 282 282 281 281 281 281 280 280 279 279 279 279 278 278 277 277 277 278 277 278 278 277 277 278 278 278 278 278 277 277 276 275 275 276 275 276 276 277 276 277 277 278 277 278 279 279 280 280 281 281 282 282 282 282 283 283 284 284 285 286 286 287 287 287 287 287 287 287
287 286 285 285 285 285 286 286 286 285 285 285 284 283 283 283 283 283 282 282 281 281 281 281 280 280 279 279 279 278 278 277 277 277 277 277 277 277 277 277 277 277 277 277 277 276 276 275 275 274 274 274 274 275 276 276 276 276 277 278 278 278 278 279 280 280 281 280 280 280 281 281 282 283 284 284 284 285 285 286 286 286 286 286 285
287 286 286 285 285 286 286 286 285 285 285 285 284 284 283 283 283 282 282 282 281 281 281 281 280 280 280 279 279 278 278 278 278 277 277 277 277 277 277 276 276 276 275 276 275 275 275 274 274 274 274 275 275 274 277 277 277 277 276 276 277 279 279 278 278 279 280 279 280 281 281 282 282 282 282 283 283 284 284 284 285 285 284 284 284
286 286 286 285 285 285 285 285 285 285 285 285 284 284 284 283 283 282 282 282 281 281 280 280 280 280 280 279 279 279 278 278 278 278 277 276 277 276 277 276 276 275 275 274 274 274 273 273 273 273 274 274 275 275 276 277 275 275 276 276 275 276 277 278 278 277 279 279 279 279 280 281 281 281 281 281 281 282 282 282 282 282 282 283 283
286 286 286 286 286 285 285 285 285 285 285 284 284 284 283 283 282 282 282 282 281 280 280 280 280 280 280 279 279 279 279 279 280 280 279 279 276 275 275 276 275 274 274 273 273 273 272 272 272 273 273 273 274 274 274 275 275 275 277 277 276 277 277 276 277 279 278 278 279 279 279 280 279 279 278 278 278 279 279 280 281 281 281 282 282
286 286 286 286 285 285 285 285 284 284 284 285 285 286 286 283 282 282 282 281 281 281 280 279 279 279 279 279 279 280 280 280 281 281 281 281 280 278 276 275 274 274 273 272 272 272 272 271 271 273 272 272 274 275 275 276 277 277 276 276 275 275 275 275 276 278 279 279 278 277 278 279 278 277 277 276 278 278 279 279 279 279 280 282 283
285 285 285 285 285 285 285 284 284 284 284 284 286 287 287 287 283 282 281 281 281 280 280 279 279 278 278 279 279 280 280 280 280 281 282 281 281 280 279 278 277 274 272 271 271 272 271 271 272 273 273 273 274 276 276 276 277 276 276 276 275 275 274 273 272 277 280 278 277 275 275 277 277 274 275 275 277 277 278 278 279 280 281 282 283
284 284 284 284 284 284 284 284 284 284 284 285 287 287 288 287 286 283 282 281 281 280 280 279 279 278 278 278 278 278 279 279 279 280 281 282 281 280 280 279 279 279 278 274 272 271 271 271 272 272 274 274 275 276 276 276 276 276 276 275 275 274 274 274 274 274 279 278 275 274 273 276 275 274 274 275 276 277 277 278 280 281 281 282 282
284 283 284 284 284 284 284 284 284 284 284 286 287 288 288 288 287 285 282 282 281 280 280 279 279 278 278 277 277 277 277 279 279 279 279 280 281 280 280 279 279 279 279 279 278 275 274 273 272 273 274 275 275 276 277 277 278 275 275 274 275 275 275 274 275 276 277 278 274 272 271 273 274 273 274 275 276 276 276 278 279 280 280 281 282
283 283 283 283 283 283 283 283 283 284 284 285 287 287 288 288 288 286 282 281 281 280 280 279 279 278 278 277 276 276 276 278 278 278 278 279 279 278 278 277 277 278 279 280 279 278 277 275 274 273 276 277 276 277 278 278 276 274 274 274 276 275 275 275 276 275 276 276 272 271 269 272 274 273 272 274 276 275 276 277 278 279 281 281 282
282 283 283 283 283 283 283 283 283 283 283 286 286 287 288 288 288 287 283 282 281 280 280 279 279 278 278 277 276 275 275 276 277 277 277 278 278 277 277 276 276 277 278 278 278 277 277 276 276 276 277 278 278 278 278 278 277 277 277 276 276 275 274 274 273 274 273 274 273 271 267 271 273 271 272 273 274 274 275 277 278 279 280 280 281
282 282 282 282 282 283 283 283 282 282 283 286 286 287 287 288 288 286 284 282 280 280 279 279 279 278 277 276 276 275 275 276 278 280 279 278 277 276 275 276 276 276 277 279 280 280 279 278 278 278 278 278 279 278 278 278 277 278 278 275 274 272 271 270 269 270 269 273 273 271 268 269 272 271 271 273 274 273 275 275 277 278 279 279 280
281 281 281 282 282 282 282 282 282 282 282 284 286 286 287 288 287 285 284 282 281 279 279 279 278 277 277 276 276 275 275 275 278 281 281 280 276 275 275 275 275 275 276 278 281 282 282 281 281 281 280 280 281 280 280 281 279 278 274 273 272 270 269 267 267 268 268 271 271 271 269 267 271 271 270 272 273 272 273 274 275 276 277 278 279
280 280 281 281 281 281 281 281 281 281 282 283 285 286 286 287 287 285 284 282 280 279 278 278 277 277 276 278 277 275 275 275 279 281 282 280 276 275 275 274 274 274 275 277 278 280 282 281 281 280 280 281 280 281 282 282 281 279 272 271 270 269 267 267 265 267 267 268 270 272 268 268 270 271 270 271 271 272 273 274 275 275 276 276 276
279 280 280 279 279 280 280 280 281 281 281 282 284 285 286 286 286 285 283 282 280 278 277 276 276 276 275 277 278 276 276 276 280 282 282 280 276 276 275 274 274 274 275 277 276 276 277 278 278 278 278 279 279 276 276 278 276 275 273 271 270 268 267 266 266 265 265 267 270 272 267 268 269 270 269 266 267 271 272 274 273 273 273 274 274
Wind_Speed
7 6 4 5 4 4 4 3 3 3 3 3 3 5 4 3 3 4 3 4 3 4 3 3 3 2 2 3 2 2 2 2 2 2 2 2 2 4 7 7 8 8 9 10 10 10 9 8 9 9 8 9 8 8 9 10 9 8 9 11 12 12 12 14 13 13 13 12 13 13 14 15 16 16 16 16 16 16 16 16 17 17 18 18 17
7 5 6 6 5 4 4 4 4 4 4 4 3 3 5 4 3 3 4 3 3 3 3 3 3 2 2 2 2 2 2 2 2 2 2 2 2 3 7 7 8 9 10 10 11 11 10 9 10 10 9 9 9 8 9 9 8 9 10 11 11 11 11 12 13 13 13 13 13 13 14 15 15 15 15 15 15 16 16 16 16 16 16 17 17
7 7 6 6 5 5 5 4 4 4 4 4 3 3 3 3 4 4 4 3 3 3 2 3 3 2 2 2 2 2 2 2 2 2 2 2 2 2 3 7 9 9 10 11 11 12 12 12 12 11 10 9 9 8 9 9 9 9 8 8 10 11 11 12 12 13 13 13 13 13 14 14 14 14 15 15 15 15 15 15 16 16 16 16 17
9 8 7 7 6 6 5 6 5 4 4 4 4 3 4 4 3 3 3 3 3 3 2 2 3 2 1 2 2 2 2 2 2 2 2 2 2 2 3 4 9 11 11 11 12 12 12 12 11 11 11 11 10 9 10 9 8 7 7 8 9 9 9 10 11 11 11 12 12 12 12 13 14 14 14 15 15 15 15 15 15 15 15 16 16
8 9 8 7 7 7 6 6 5 4 4 5 6 5 4 4 4 3 3 3 3 3 2 2 3 2 2 2 2 2 2 2 2 3 3 3 2 2 3 3 4 9 12 13 13 12 12 12 12 11 11 11 11 11 10 9 8 7 8 8 9 9 8 8 9 9 10 11 12 13 13 14 14 14 15 15 15 14 15 15 14 15 15 15 16
9 8 8 8 7 7 7 6 5 6 5 5 5 4 5 4 4 4 3 3 3 4 3 3 2 2 2 2 2 2 2 3 3 3 2 3 2 2 3 3 3 4 5 11 13 13 13 12 12 12 12 12 11 11 10 9 8 8 8 8 8 8 8 9 9 9 10 11 12 13 14 14 14 14 15 14 15 15 14 15 15 15 15 15 15
9 9 8 8 8 7 7 6 6 6 5 4 5 4 4 5 5 5 3 3 2 3 3 3 3 3 3 2 3 3 3 3 3 3 3 2 2 3 3 3 4 4 4 4 8 14 13 13 12 12 12 12 12 11 11 10 9 7 7 7 7 7 8 8 8 9 10 12 13 13 13 13 14 14 14 14 14 14 14 14 14 14 15 15 15
10 10 9 8 8 8 7 6 8 6 5 5 5 6 5 5 4 4 6 4 4 3 2 4 3 4 3 3 3 3 4 3 3 3 2 2 3 3 3 4 4 4 4 4 5 8 14 12 12 12 12 12 11 11 10 10 8 8 8 9 8 7 7 7 9 10 11 11 12 12 13 13 13 13 13 13 13 13 13 14 14 14 14 14 15
11 10 9 9 8 8 7 8 7 7 7 6 5 5 6 5 4 4 3 4 4 5 3 3 4 4 3 3 3 3 3 3 3 3 3 4 4 4 4 4 4 4 4 4 4 4 10 12 12 12 12 11 11 10 10 9 9 8 8 8 8 8 8 9 10 11 11 11 12 12 12 12 12 12 12 13 12 13 13 13 13 14 14 14 14
11 10 9 9 8 8 8 9 8 7 7 6 6 5 4 5 6 3 3 3 4 5 4 3 3 4 4 4 3 3 3 3 3 3 3 5 4 4 4 3 4 4 4 4 4 4 4 7 10 11 12 11 11 11 10 10 9 8 8 8 8 8 9 10 10 10 11 12 12 12 12 13 13 12 12 12 11 12 12 12 12 12 13 13 13
10 11 10 9 9 8 8 9 8 8 8 7 6 6 5 5 6 5 2 1 2 3 4 5 5 4 4 4 3 3 3 3 2 3 3 3 4 4 3 3 4 3 4 4 4 4 5 4 4 4 6 13 11 11 10 10 9 8 7 7 7 8 9 9 9 10 11 11 12 11 12 12 12 11 11 11 11 11 11 11 12 12 13 14 14
10 10 9 9 9 9 9 9 8 8 9 8 8 8 9 9 7 7 6 3 2 3 4 6 6 7 6 5 4 3 4 3 3 3 3 3 3 3 4 3 3 4 4 4 4 4 5 4 4 4 4 8 12 11 11 11 10 8 7 7 8 8 9 8 9 10 11 11 11 11 11 10 10 10 10 10 11 10 11 11 11 12 12 12 13
10 10 9 8 8 8 8 9 8 9 9 9 9 8 7 6 6 4 7 6 3 3 4 4 8 6 5 5 4 2 2 3 3 3 2 2 2 2 2 3 4 4 3 3 4 4 4 5 4 4 4 3 5 9 10 10 10 8 8 8 7 8 9 9 9 11 11 11 11 10 10 10 10 10 10 10 10 10 10 10 11 11 11 11 11
10 10 9 10 9 9 9 10 9 8 8 7 8 7 7 7 7 5 1 5 5 6 5 5 2 5 6 4 3 2 1 1 1 1 1 2 1 2 2 3 4 4 4 4 4 4 5 4 4 4 4 4 4 4 4 5 7 11 10 9 8 9 9 9 10 10 11 11 11 10 10 9 9 9 10 10 10 10 10 10 11 11 11 11 11
10 10 9 9 9 9 10 9 10 9 9 9 9 9 8 9 10 8 6 0 2 2 5 4 4 3 2 5 3 3 2 3 1 2 0 2 1 2 2 3 3 3 3 4 4 4 4 4 4 4 4 4 3 3 4 4 6 9 10 11 11 11 11 11 11 11 11 11 11 10 9 9 9 9 10 10 10 10 10 10 11 11 11 11 11
9 10 9 10 10 10 9 9 9 10 10 10 10 10 9 8 8 7 7 6 4 5 3 4 2 7 4 1 2 1 2 7 7 3 0 2 2 2 1 2 3 2 3 4 3 4 3 4 4 4 3 3 3 3 3 4 5 6 8 9 11 13 14 13 13 12 12 11 11 10 9 10 10 10 9 10 10 11 11 10 11 11 11 11 12
10 11 10 11 10 10 9 9 9 9 8 9 10 11 11 9 9 8 11 10 8 3 4 3 6 3 3 6 2 1 4 2 4 3 2 3 3 2 2 0 1 1 2 3 2 3 3 3 3 3 3 3 3 3 3 3 3 4 4 5 8 12 14 14 13 12 12 11 10 10 9 9 10 10 10 10 11 11 11 11 11 11 12 12 12
9 10 10 10 10 10 10 10 9 9 9 8 8 7 9 10 11 10 11 6 9 6 5 4 2 2 5 2 1 2 5 2 3 4 1 2 0 1 1 0 0 1 1 2 2 2 2 2 3 3 2 2 2 2 2 3 3 2 3 5 10 12 13 14 14 13 13 11 10 10 10 10 10 10 10 11 11 11 11 11 11 12 12 12 12
10 10 10 9 9 9 10 10 10 9 9 8 9 10 10 10 8 9 9 6 7 9 11 7 2 3 2 2 1 1 1 7 4 3 2 2 3 4 3 2 1 2 2 1 1 1 1 2 2 2 2 1 2 2 2 3 3 3 6 8 10 12 14 15 14 13 13 12 11 11 11 11 11 11 11 12 12 12 12 12 12 12 12 12 13
10 10 10 10 10 9 10 9 10 10 10 10 10 9 8 6 8 8 6 6 10 10 11 7 11 6 3 3 1 1 2 4 2 6 3 4 4 2 1 2 2 3 2 1 0 1 0 1 1 1 1 2 2 2 2 3 2 3 5 10 10 12 15 15 14 13 12 12 12 12 11 11 11 12 12 12 12 12 12 12 12 13 13 13 13
9 10 10 11 10 10 10 10 10 10 10 9 9 9 12 11 11 10 10 8 8 6 7 9 9 8 7 1 1 1 2 3 1 2 3 5 2 4 4 2 2 3 2 1 1 0 1 1 1 0 1 2 2 2 2 3 3 4 6 9 11 13 15 15 14 12 12 11 12 12 11 12 12 12 13 13 13 12 12 13 13 13 13 14 14
8 9 9 10 10 9 10 11 11 10 9 11 10 11 10 11 12 12 10 11 7 6 9 7 7 5 8 7 6 3 1 1 0 2 3 1 3 5 4 7 6 3 2 1 1 1 1 1 1 1 1 2 2 3 3 4 3 3 5 9 10 12 14 15 14 13 12 11 12 12 12 12 13 13 13 13 13 13 13 13 14 14 14 14 14
8 8 9 9 10 10 9 10 9 10 9 10 11 10 10 10 9 10 11 12 9 8 7 6 7 6 7 7 10 11 11 9 9 5 5 4 2 2 2 3 2 3 2 1 1 2 3 2 2 2 1 2 3 4 4 4 4 5 8 9 10 12 14 15 14 13 12 12 13 12 12 13 13 13 13 13 13 14 14 14 14 14 14 15 15
7 7 9 9 9 9 10 9 10 9 10 8 7 9 8 7 7 9 8 8 7 8 7 8 9 7 8 7 7 8 6 6 8 7 9 6 7 5 4 3 1 3 1 2 1 3 3 2 2 2 2 2 3 4 5 5 5 8 4 8 10 12 13 15 14 13 12 12 12 12 13 13 13 13 13 13 14 14 14 14 14 15 15 15 15
8 9 10 12 9 9 10 11 10 9 9 9 10 10 9 9 9 9 9 10 10 10 9 11 11 10 10 8 5 5 6 1 4 7 4 3 6 4 1 1 2 2 1 0 1 1 3 3 2 2 2 3 4 5 5 4 4 5 6 5 9 10 11 12 13 12 11 12 12 12 13 13 13 13 13 13 14 14 14 15 15 15 16 16 16
9 11 10 10 9 11 10 9 9 9 10 11 10 10 10 10 10 11 12 10 8 11 10 10 8 9 5 7 7 7 5 4 5 6 7 7 5 8 6 2 1 0 1 1 1 1 2 2 1 1 2 3 4 4 4 4 4 5 6 3 4 7 9 11 11 11 11 12 12 12 12 12 12 12 13 13 14 14 14 14 15 15 15 16 17
8 6 7 9 10 9 11 11 11 11 10 10 9 10 10 9 10 11 9 9 10 9 9 10 9 10 9 8 7 6 6 5 5 7 7 8 8 8 8 6 2 1 2 1 1 5 2 3 1 2 2 3 4 4 4 3 3 4 3 1 1 3 8 10 10 10 11 12 12 12 12 12 12 12 12 13 13 13 14 14 14 14 15 16 16
6 6 8 8 9 9 9 10 10 10 10 11 10 10 11 11 9 10 11 7 10 12 10 9 10 11 10 7 6 7 5 5 6 5 6 5 4 6 8 8 7 3 2 3 3 5 5 6 2 2 3 4 4 4 4 4 2 2 2 0 1 2 6 9 10 10 11 12 12 12 13 12 12 12 12 12 12 12 12 13 13 14 14 15 15
7 7 8 8 9 10 10 9 9 9 9 10 10 9 9 10 10 11 12 10 10 12 9 10 9 9 7 9 8 6 6 5 4 5 5 4 4 5 6 9 7 5 3 4 6 5 5 6 6 5 4 5 5 5 4 3 2 2 1 2 2 3 7 10 11 11 12 13 13 14 14 13 12 12 12 11 11 11 12 12 13 14 15 15 16
9 9 11 10 10 11 12 12 10 9 10 8 9 8 8 9 9 9 8 8 10 8 9 9 9 7 8 7 7 6 6 7 6 6 6 6 6 5 5 2 4 7 5 6 3 5 4 5 3 3 5 6 5 4 4 3 2 1 1 2 3 4 9 11 12 12 13 13 13 13 13 12 12 11 11 11 11 11 12 13 13 14 15 16 17
10 9 9 9 10 11 11 11 9 10 9 9 8 8 8 8 8 8 8 9 9 10 8 9 8 8 9 10 8 6 7 7 6 6 5 6 6 5 4 3 3 4 5 4 2 3 2 8 5 2 5 7 5 4 2 2 2 3 3 3 4 6 10 9 11 12 11 11 12 12 11 11 11 10 10 10 11 12 13 14 14 15 16 16 17
10 10 9 10 11 10 10 10 11 10 10 9 9 9 8 9 8 9 9 10 10 10 9 8 7 9 10 11 9 8 7 7 7 6 6 5 5 5 5 4 4 3 4 4 6 3 1 2 5 3 5 6 4 3 4 3 4 8 4 4 4 7 7 6 10 12 11 11 11 11 11 11 11 11 11 11 12 13 14 15 16 16 16 16 16
10 10 10 11 10 10 10 11 11 11 11 11 10 9 10 10 9 9 8 11 12 10 9 10 9 9 10 10 9 8 8 9 8 7 6 7 6 5 5 5 5 5 6 6 6 5 2 2 5 5 4 5 5 8 7 6 6 6 6 5 5 6 6 6 6 10 11 11 11 12 12 12 12 12 13 13 13 14 15 16 16 16 16 16 16
10 12 13 12 10 11 11 11 11 10 11 11 11 11 11 11 11 8 9 11 11 11 10 11 11 8 10 11 10 10 10 10 9 9 8 8 8 7 7 7 7 6 5 6 6 5 6 5 4 3 4 5 4 7 6 5 5 4 5 5 5 6 6 5 5 4 8 10 11 12 12 12 13 13 13 13 13 13 14 16 16 16 16 17 17
10 11 11 10 12 12 14 12 10 11 11 11 10 11 12 12 12 11 13 11 12 12 13 13 11 10 11 11 11 10 7 10 9 8 8 9 8 9 9 7 8 7 7 6 6 7 8 6 6 6 6 5 6 6 5 4 4 4 5 6 5 4 4 5 5 4 7 10 11 12 12 12 13 13 13 13 13 13 14 15 15 16 17 17 18
10 9 10 12 12 12 14 14 14 14 14 14 14 15 17 17 17 17 16 15 15 15 13 11 12 13 13 11 11 12 11 11 10 9 9 9 9 9 8 8 7 8 7 7 5 4 5 6 6 6 5 5 5 4 4 4 5 5 5 5 5 4 4 4 5 4 5 10 11 12 13 13 13 13 13 13 13 14 16 16 16 17 17 18 18
10 9 9 10 12 13 13 14 15 15 16 15 16 16 15 15 16 16 16 16 16 16 17 16 14 12 12 14 12 12 13 12 10 10 10 12 9 9 9 8 8 7 6 7 6 5 5 6 5 3 3 3 3 4 4 4 4 4 5 5 5 5 5 5 4 4 7 12 12 13 14 14 14 14 14 14 15 16 18 18 18 18 19 19 20
10 10 10 10 11 13 14 14 14 15 15 15 16 16 16 15 15 15 15 15 16 16 16 16 17 16 13 14 13 14 14 14 13 11 11 14 11 10 11 9 8 8 8 7 6 6 5 4 5 4 4 4 4 5 4 4 4 5 6 6 6 5 6 6 5 3 3 4 5 6 8 10 12 14 13 13 15 18 18 19 19 18 18 19 19
11 10 10 11 11 13 14 13 14 14 14 15 16 16 16 16 16 16 16 16 16 15 15 16 16 15 11 12 13 15 16 14 13 15 13 13 11 13 12 12 10 10 9 8 8 8 7 6 5 5 5 5 5 5 4 5 5 5 5 5 5 4 4 5 7 6 5 6 8 12 12 12 12 11 11 14 17 19 19 18 18 18 18 18 20
10 11 11 12 12 12 13 13 13 12 14 15 15 16 15 16 15 16 16 16 16 15 15 15 15 16 11 13 13 14 14 14 14 13 15 14 12 12 11 10 11 11 10 9 9 8 8 7 7 6 6 5 5 6 4 5 6 7 6 5 5 4 3 4 6 8 8 7 7 6 8 10 10 11 12 15 19 19 19 17 17 17 19 19 19
8 9 10 11 12 12 12 12 12 12 13 15 14 14 15 15 15 16 16 16 16 16 16 15 12 10 10 11 11 12 18 18 18 14 16 15 13 12 11 12 12 11 8 7 8 7 7 6 6 5 6 6 7 7 8 8 9 6 4 6 5 4 4 5 6 7 8 8 7 7 7 6 6 8 8 9 10 13 13 15 14 17 18 18 18
8 8 9 10 11 12 12 12 12 12 13 12 14 20 15 14 15 14 13 15 16 15 14 11 10 12 11 10 13 14 18 20 21 22 24 24 20 14 14 14 12 11 11 9 8 8 8 9 8 8 7 8 9 10 9 8 6 6 6 6 5 4 3 5 7 8 7 7 7 7 7 6 6 8 8 10 9 8 8 8 9 11 14 18 19
8 8 9 10 10 10 12 12 13 13 13 12 17 18 22 21 15 14 14 14 14 15 16 17 14 12 11 11 9 13 16 17 18 23 25 26 25 20 19 20 18 17 16 11 8 10 10 9 8 7 8 8 9 9 9 8 8 8 7 5 4 4 4 4 6 4 6 5 6 7 8 7 6 7 8 9 9 8 8 9 15 17 19 19 20
8 6 8 10 10 10 10 12 13 13 13 14 17 20 22 23 20 15 13 13 13 15 15 15 10 10 12 11 10 8 10 13 12 16 20 23 23 21 22 22 22 19 18 18 15 10 9 9 9 10 8 8 8 9 9 9 9 8 7 5 5 5 5 7 7 7 4 2 5 7 10 6 6 8 9 9 8 7 8 12 17 18 19 20 20
8 8 9 8 10 10 11 12 13 13 13 12 18 20 21 23 25 19 13 13 13 15 16 13 11 11 10 10 10 9 8 17 13 12 13 16 20 23 22 23 23 23 20 17 13 11 12 9 9 9 10 9 9 9 10 9 8 7 6 6 7 7 7 7 8 9 8 5 6 7 8 7 6 8 8 8 7 7 8 13 18 18 19 19 19
8 9 8 9 9 9 10 12 13 13 13 13 18 20 21 23 24 21 14 14 14 14 16 14 10 11 12 11 11 10 10 13 12 13 12 11 13 15 15 14 13 18 20 20 18 14 12 10 10 10 9 9 8 8 9 10 9 7 6 7 7 8 8 9 8 9 10 5 6 8 7 7 5 5 9 10 7 8 9 13 18 18 18 18 19
9 10 9 9 9 9 10 10 11 12 12 13 17 20 21 23 24 21 14 13 13 13 14 14 12 10 10 9 10 10 10 12 12 15 13 13 15 14 14 14 12 12 14 15 14 12 11 9 10 8 8 9 8 7 9 9 8 7 7 8 6 4 2 3 6 7 7 6 6 4 5 2 5 8 10 9 7 8 9 13 17 17 18 17 17
7 7 8 8 10 11 11 10 11 13 11 12 16 19 21 22 24 15 13 14 14 13 13 13 10 8 8 10 10 10 11 10 17 25 19 13 16 17 17 14 12 11 11 13 16 14 11 10 10 9 8 8 10 9 9 7 7 7 6 4 4 3 2 3 6 4 5 4 5 5 7 7 6 8 10 8 9 9 8 9 13 15 15 14 14
8 9 9 9 9 9 11 10 11 12 11 11 16 18 20 22 19 13 13 12 13 13 13 11 8 9 8 10 11 10 12 12 20 25 26 21 15 17 16 15 12 11 9 12 18 20 18 17 15 15 15 16 16 16 16 15 10 6 4 3 6 2 1 4 5 4 6 3 3 5 5 7 6 7 11 8 9 10 9 8 7 8 11 10 12
9 8 7 8 9 9 10 12 11 12 12 9 14 17 20 22 18 14 12 12 13 13 12 10 6 7 9 17 16 12 12 13 24 27 28 22 15 16 15 15 15 12 10 10 9 12 20 18 17 16 16 15 16 18 18 15 13 7 4 6 2 3 4 4 4 3 5 5 4 2 2 5 6 8 11 9 9 8 7 6 5 5 6 9 14
9 9 7 7 9 8 9 11 12 13 12 10 14 17 20 22 19 13 12 11 12 12 10 10 8 4 7 13 21 16 14 16 27 27 29 23 16 16 17 16 15 14 13 13 12 11 12 12 12 13 11 14 9 4 6 9 6 5 4 3 2 3 5 5 4 2 4 3 2 3 2 4 5 8 7 10 3 3 6 4 1 5 9 9 7
Wind_Direction
168 170 154 163 150 155 157 154 150 149 156 157 154 139 128 127 121 118 111 110 107 101 97 87 82 76 83 87 76 66 62 62 59 50 55 57 36 29 37 56 66 67 76 82 82 80 80 83 87 82 72 66 68 70 70 64 62 66 72 68 65 63 62 58 53 52 51 49 49 48 47 44 41 39 37 35 33 32 32 31 30 29 26 23 21
166 163 166 163 161 156 161 163 164 159 166 161 166 147 136 127 121 121 123 121 114 109 111 99 88 90 87 100 88 79 71 66 57 53 59 54 39 42 30 48 61 71 72 78 78 79 81 85 84 79 72 68 72 79 76 67 66 66 67 65 64 63 63 58 53 51 50 50 49 48 48 46 42 39 38 36 34 33 32 31 30 29 26 24 21
166 164 169 160 161 164 170 160 166 170 173 152 149 141 126 130 140 140 139 132 120 118 115 110 106 105 106 109 100 104 93 82 79 69 61 51 53 46 30 38 50 59 74 75 77 78 76 75 77 75 70 66 79 79 79 69 65 65 68 68 64 63 61 57 54 49 48 51 49 51 50 47 45 42 40 38 35 34 32 32 31 29 28 26 23
166 165 167 163 166 170 166 172 173 165 166 155 141 131 123 116 109 102 103 110 117 121 108 114 117 112 116 101 94 91 92 91 91 77 66 61 61 53 55 41 48 51 54 69 75 74 74 74 74 72 67 67 70 79 81 74 68 68 64 62 65 61 58 56 54 49 48 51 53 52 51 48 47 44 41 38 36 34 33 31 31 29 28 27 24
172 168 167 166 163 165 171 178 167 162 153 146 129 127 126 126 116 115 110 106 116 117 112 109 116 115 113 94 101 88 82 88 85 84 80 76 67 64 61 57 58 49 47 53 64 68 69 68 67 67 65 65 67 70 76 75 73 70 62 57 60 58 57 59 55 47 47 50 53 52 50 49 47 45 42 39 35 34 33 31 29 29 28 26 23
166 168 167 166 167 174 171 169 163 159 149 148 143 146 139 135 134 134 139 149 151 146 147 134 119 121 114 118 104 104 107 96 85 83 90 86 77 71 72 71 62 61 50 47 51 62 63 63 65 64 65 62 64 69 69 74 76 63 64 60 59 57 58 58 53 48 49 50 51 50 48 46 45 44 41 38 35 33 32 29 26 26 25 23 22
173 166 171 170 169 171 176 168 156 156 153 157 145 142 141 146 148 150 151 163 157 155 167 141 143 132 124 135 124 122 116 109 107 97 89 89 82 77 71 69 69 67 59 65 53 55 59 59 59 60 61 62 61 62 64 64 66 68 70 69 67 63 61 57 53 54 54 52 51 49 48 46 45 43 41 36 33 31 29 26 24 22 21 19 18
174 173 169 176 174 172 172 156 159 154 151 148 148 153 154 147 160 157 155 172 163 147 165 137 137 123 125 120 122 124 118 117 115 111 101 105 93 85 76 75 69 72 66 66 64 58 56 58 57 54 56 57 59 59 60 61 66 71 74 77 73 69 65 61 61 60 57 56 54 52 50 48 46 45 42 39 37 31 28 26 23 21 19 18 16
177 175 170 172 175 171 163 161 157 156 152 153 159 157 156 152 160 186 217 160 169 143 140 136 122 110 108 101 100 119 113 113 115 117 124 106 102 95 88 78 79 78 73 72 67 62 52 52 53 49 48 54 55 59 56 53 58 71 76 78 79 70 65 63 61 59 58 54 53 51 50 49 46 44 42 37 33 31 27 24 23 19 16 15 12
175 175 176 176 172 165 157 160 158 153 151 158 162 155 158 163 158 181 189 171 165 157 142 128 113 103 90 86 94 94 98 105 111 118 119 112 106 98 93 93 85 75 74 71 69 63 55 47 45 44 40 47 51 56 56 49 51 63 76 76 76 73 66 64 61 59 56 52 49 47 46 44 42 39 36 35 31 28 24 22 20 17 15 13 12
177 174 175 171 168 165 162 162 159 155 153 158 158 166 163 170 170 155 157 219 160 149 140 127 106 88 81 74 81 79 90 89 96 102 99 106 109 109 109 93 90 77 74 71 66 62 54 48 44 42 38 39 45 49 52 46 47 58 70 80 83 81 73 69 64 58 53 50 47 46 43 43 38 37 33 31 29 27 25 18 17 16 13 11 9
179 177 175 169 168 167 161 161 162 158 159 162 171 177 173 168 178 161 147 122 86 123 141 122 90 82 81 75 63 82 84 85 78 80 91 99 109 125 113 112 95 88 80 78 73 64 58 52 50 48 42 38 41 43 45 39 38 58 61 79 83 83 77 69 63 58 53 50 47 46 42 42 38 34 34 29 27 25 21 18 16 14 11 8 5
181 176 179 170 168 157 158 167 166 168 169 179 170 164 166 168 148 160 156 150 148 164 176 145 124 90 77 81 83 52 90 68 72 78 86 105 120 122 125 116 104 100 98 90 83 70 65 56 54 49 42 38 36 35 37 30 27 50 56 67 80 82 72 62 55 56 50 45 41 40 39 34 33 33 29 28 25 21 17 16 11 8 7 3 359
178 177 174 171 165 166 169 169 170 174 169 145 152 160 158 160 159 150 254 175 154 179 181 159 148 155 150 138 89 119 190 315 32 58 114 123 137 131 134 121 114 117 119 105 88 80 70 65 57 53 46 38 35 35 26 26 24 22 47 55 75 68 60 54 49 48 43 37 33 35 34 31 32 30 25 22 19 17 15 12 8 5 0 358 355
176 178 175 173 171 169 176 167 174 162 158 165 165 171 174 171 179 171 153 108 101 168 197 255 128 108 108 123 158 157 203 237 216 244 228 187 152 132 131 118 111 106 115 104 93 85 80 68 63 55 50 42 37 32 37 24 15 10 20 25 50 49 48 42 36 32 32 28 27 29 30 29 26 25 24 18 13 15 12 9 6 3 358 354 353
172 173 178 181 175 176 168 174 175 177 170 162 172 176 171 177 183 192 162 145 188 182 221 200 194 153 165 250 133 194 170 217 199 174 209 205 184 138 127 129 134 121 107 90 95 91 87 77 65 63 55 52 41 31 40 33 359 4 358 354 41 36 28 24 21 22 22 23 24 24 27 24 21 19 17 14 11 10 8 4 3 359 356 353 351
180 184 181 177 176 176 173 174 175 179 174 172 175 182 180 179 176 174 191 178 162 167 190 184 226 298 133 130 113 224 233 86 140 209 165 190 198 161 134 130 142 114 86 86 98 90 86 77 62 63 58 60 48 38 43 32 20 9 1 344 56 39 24 17 14 16 17 17 19 19 21 18 17 15 15 10 9 5 360 358 357 354 352 350 348
186 186 187 179 178 177 172 170 176 177 184 182 172 164 178 180 192 190 191 220 163 153 169 201 238 209 246 335 322 193 159 175 162 200 149 257 203 212 184 166 292 188 109 90 72 93 76 71 55 52 57 56 57 53 48 41 23 15 8 42 52 36 25 16 9 6 9 13 15 13 12 13 12 12 9 7 4 1 355 355 352 349 348 346 344
186 185 187 185 180 179 178 178 175 175 174 171 177 185 182 190 175 192 200 167 157 173 181 171 136 235 214 229 209 262 217 140 197 84 192 170 212 204 185 168 216 250 229 182 82 139 108 73 57 44 60 66 64 61 62 45 28 19 0 47 34 29 19 13 7 2 2 3 6 4 5 6 7 8 5 1 359 358 355 353 350 347 345 345 345
182 187 185 182 182 183 183 178 176 179 174 183 182 181 178 180 186 195 184 193 194 186 172 167 176 173 162 173 73 61 26 18 76 172 146 168 186 145 232 201 203 219 240 237 215 228 178 89 45 52 74 89 76 72 67 60 49 30 41 39 30 19 14 7 2 359 357 356 358 358 358 359 1 1 360 357 356 356 353 351 348 346 344 344 343
188 185 189 186 187 184 179 181 180 179 182 183 185 177 181 174 176 187 195 195 204 199 156 183 199 169 148 153 108 66 36 34 61 31 158 177 177 179 178 137 223 206 218 164 102 128 291 323 338 346 153 111 96 90 87 88 84 66 48 35 23 13 8 1 357 355 351 351 353 352 353 355 354 354 354 353 353 351 351 349 346 344 342 341 340
191 192 189 192 188 183 185 185 185 180 184 188 178 178 180 185 188 189 187 193 192 199 193 184 196 166 187 146 153 133 85 113 64 119 32 4 182 189 186 173 193 176 181 181 16 262 288 292 267 233 178 130 113 117 110 115 108 80 50 34 19 11 1 356 353 349 345 346 348 347 348 349 349 349 349 350 350 348 348 347 344 342 339 337 338
184 189 194 191 194 190 188 190 187 187 188 186 189 181 184 186 184 187 193 193 189 191 202 185 185 178 185 182 176 173 173 176 183 187 170 157 134 220 181 210 185 156 170 15 186 268 279 267 232 196 176 139 134 129 133 127 116 86 59 27 18 5 357 353 349 345 340 343 344 342 343 344 345 345 345 346 347 345 345 344 341 337 335 335 335
183 186 196 192 193 193 190 187 191 189 194 186 181 186 181 178 182 191 194 199 191 191 197 185 185 185 197 199 198 196 191 185 178 169 173 188 177 169 163 131 231 241 30 300 272 269 271 251 222 210 175 152 148 141 136 133 109 92 70 34 12 4 354 348 344 338 335 339 339 338 339 340 340 340 342 342 343 344 342 340 339 335 334 333 331
198 198 198 192 190 186 189 194 191 192 186 181 186 179 177 183 184 186 191 192 194 188 193 198 183 186 193 197 197 195 199 145 154 171 180 117 161 127 111 105 170 130 122 311 286 299 265 254 215 205 185 166 149 154 145 138 137 95 88 40 16 359 349 341 334 330 332 334 334 333 334 335 336 338 339 339 341 341 339 338 336 332 332 330 329
194 205 191 188 190 199 195 196 195 190 188 188 181 181 177 181 181 187 193 197 188 198 204 197 197 207 184 182 198 193 187 165 168 160 160 150 172 172 138 120 53 249 111 209 192 231 170 246 212 189 187 158 157 149 147 136 126 101 74 50 9 350 341 333 329 327 331 331 328 327 328 330 332 335 336 338 338 338 337 336 332 329 329 327 326
211 207 194 197 201 197 198 195 194 191 189 188 189 181 181 180 187 191 192 188 191 190 202 192 192 194 195 195 189 194 185 173 172 184 171 182 164 159 150 146 196 242 244 183 234 237 173 167 151 188 183 161 158 154 145 139 131 98 86 54 327 318 330 327 324 320 321 321 320 320 322 326 331 334 336 337 336 335 334 331 327 326 325 324 323
209 199 207 200 204 208 206 209 202 199 194 193 187 184 181 184 184 187 194 176 188 190 198 193 201 196 196 187 185 203 178 178 190 179 186 178 165 160 168 165 161 196 188 232 205 237 183 183 178 234 187 173 165 156 144 144 143 142 130 253 303 305 320 322 315 315 319 317 318 322 323 327 331 333 335 335 333 329 327 324 322 320 319 318 318
198 200 199 195 200 204 208 211 210 208 203 202 196 192 185 192 189 187 194 181 185 192 185 193 197 186 191 189 196 184 183 174 183 188 177 170 177 182 185 182 182 193 172 207 207 193 180 195 191 171 186 173 166 166 164 180 180 199 302 337 317 307 316 316 314 319 319 319 322 324 323 326 328 329 330 329 327 321 319 318 317 317 317 318 318
196 194 196 194 197 200 207 208 208 205 208 204 204 198 189 202 198 200 195 171 189 188 194 187 188 178 185 185 193 191 176 181 189 177 176 175 168 181 189 177 172 191 188 204 197 175 147 186 222 165 174 178 169 172 180 204 200 271 315 315 310 308 313 311 313 313 312 313 314 314 316 321 321 323 324 324 321 318 316 315 316 316 318 318 318
201 195 194 194 194 198 199 202 198 204 201 205 200 202 198 202 199 200 186 186 191 194 188 184 182 175 182 188 189 192 172 183 173 176 179 174 176 173 180 158 183 198 169 180 208 153 155 175 198 230 168 174 178 176 201 231 250 255 262 280 284 295 293 290 286 288 290 293 296 300 304 310 311 313 317 316 314 313 312 314 315 316 315 314 315
205 198 198 199 197 195 197 196 198 196 197 196 193 198 196 207 196 198 190 183 194 195 187 188 175 183 181 190 190 186 173 175 179 179 179 180 168 175 173 175 168 174 156 170 212 153 204 161 155 161 157 165 183 196 225 226 214 222 235 239 255 265 269 264 264 267 276 282 291 300 305 310 311 313 314 315 314 315 314 315 316 314 313 312 313
201 202 203 201 198 199 197 202 199 195 191 190 189 190 197 203 204 201 185 191 192 195 178 186 185 182 187 188 186 187 170 179 181 172 176 176 171 174 173 174 175 172 171 175 194 143 115 135 146 167 171 180 210 203 204 205 201 207 216 231 236 239 245 247 250 253 269 286 298 305 307 309 311 312 314 316 315 314 315 313 310 309 309 311 312
204 211 209 206 202 200 201 205 204 199 198 194 186 188 196 196 201 199 200 191 195 192 183 188 187 185 181 185 185 183 182 185 175 181 177 171 175 173 182 183 181 175 182 171 197 166 159 164 183 191 204 207 221 186 206 203 209 207 226 232 232 234 241 249 254 255 271 288 298 302 303 306 306 308 311 312 310 310 308 306 305 306 308 310 311
216 215 211 206 205 204 209 209 203 203 201 198 195 194 197 196 199 201 204 193 196 189 191 193 183 177 182 190 187 174 169 185 187 182 171 178 177 182 181 180 181 178 178 193 162 188 168 174 176 185 206 212 219 184 204 233 236 230 240 234 236 239 246 268 279 280 282 292 297 299 301 304 306 306 306 306 306 303 300 299 301 304 306 309 311
225 217 214 212 208 207 211 210 208 209 206 206 205 206 207 203 204 205 204 204 204 206 201 184 178 183 188 180 185 175 176 182 182 181 186 181 181 182 177 182 183 177 179 176 197 176 171 161 189 197 194 211 231 230 236 249 255 250 243 250 236 237 247 256 262 271 271 287 295 299 303 304 305 304 303 303 304 304 302 303 306 309 311 312 313
232 222 217 211 213 212 213 211 209 209 207 204 207 209 209 208 208 206 205 205 207 209 206 202 193 185 183 191 176 172 176 182 180 186 182 182 181 177 182 179 184 176 166 182 181 175 174 187 163 190 196 229 257 277 277 279 285 285 284 285 288 289 287 278 268 261 279 295 298 300 300 301 301 300 300 304 307 305 306 309 310 312 314 314 313
236 227 220 212 215 217 216 215 213 213 209 206 210 210 208 207 208 209 208 207 208 208 207 206 200 196 190 188 176 177 178 182 185 180 178 182 176 179 179 181 176 169 174 176 177 179 190 198 170 172 199 222 246 246 248 251 268 290 296 294 290 291 298 301 296 297 291 291 301 297 294 288 285 285 293 301 301 300 302 305 306 307 308 307 306
239 233 225 220 219 221 220 216 217 213 211 211 211 211 210 207 206 206 207 208 209 209 213 209 206 204 193 186 182 182 185 185 177 179 176 176 178 183 183 177 172 169 172 175 176 180 190 193 198 194 195 211 218 247 228 224 244 247 263 284 296 299 299 300 306 311 306 295 287 283 279 281 283 288 291 295 294 295 297 298 299 300 301 300 300
241 236 232 226 226 222 224 220 220 215 215 216 216 213 211 208 206 209 207 206 206 208 212 211 209 209 202 194 190 187 185 185 183 178 172 177 173 178 180 170 172 169 172 170 171 178 184 192 200 192 193 199 214 230 241 217 230 238 230 241 265 285 290 296 292 297 299 291 285 275 265 265 269 274 283 286 284 286 290 293 292 292 291 292 293
248 241 239 235 232 228 227 224 222 216 219 219 216 211 210 209 209 210 209 207 206 206 208 210 209 205 204 203 199 190 193 192 189 179 182 172 165 171 176 171 172 171 165 162 168 168 178 186 197 194 194 201 208 200 205 208 209 209 196 199 232 251 280 285 274 258 259 265 260 252 254 252 275 286 286 283 278 280 281 280 282 280 280 283 286
264 253 247 239 235 233 230 227 223 221 224 224 219 214 206 207 206 208 209 210 208 208 205 202 201 203 203 206 209 197 191 190 188 186 186 187 188 179 167 168 169 167 175 165 170 175 174 184 196 185 191 209 201 200 202 207 201 200 201 203 218 245 258 274 277 263 246 240 246 250 253 267 279 285 279 272 274 271 271 275 268 271 277 283 288
279 267 251 249 243 237 234 230 227 226 227 226 220 211 211 206 202 207 207 210 208 208 210 208 206 196 198 203 206 201 196 192 190 186 184 186 186 188 183 178 173 170 171 174 177 174 178 188 182 185 201 206 202 196 199 194 199 199 197 199 214 223 228 237 255 256 230 204 249 275 275 269 265 272 267 262 263 263 264 261 267 275 282 287 290
294 279 265 253 249 243 240 238 234 233 232 228 218 214 210 208 203 205 208 210 208 211 211 211 207 193 194 192 194 191 196 192 183 188 188 186 184 180 179 181 185 188 184 173 166 174 185 176 183 199 193 204 195 190 195 191 193 194 197 203 211 214 224 230 244 249 192 106 293 282 279 279 263 262 262 256 252 251 254 264 273 279 285 286 286
307 293 276 265 256 250 242 242 241 238 239 221 218 215 211 209 206 201 212 210 210 212 212 209 204 198 192 190 191 191 190 191 186 187 179 182 182 179 178 182 187 189 193 198 189 173 168 173 177 188 199 191 189 199 191 191 179 184 194 203 213 218 221 233 242 254 262 286 287 278 278 277 261 257 256 258 256 261 264 264 268 275 277 280 285
309 298 288 274 266 256 248 245 246 244 240 234 223 218 213 210 209 203 213 210 213 215 213 210 201 197 192 189 187 188 184 187 185 179 174 172 174 175 177 180 184 191 193 193 190 188 179 180 175 192 193 190 197 188 184 180 185 189 200 212 216 221 222 233 253 268 277 272 268 286 277 268 243 250 267 269 261 262 257 258 264 269 275 283 289
312 304 298 290 274 263 258 251 251 248 243 231 224 220 215 211 211 206 211 214 216 218 218 215 209 198 190 188 187 185 176 185 185 178 173 176 177 179 179 181 178 181 187 189 187 184 181 180 185 184 182 191 194 181 180 185 193 203 210 224 214 180 193 268 271 255 270 254 250 253 260 241 279 278 269 271 263 261 254 252 257 270 276 280 285
301 293 288 280 277 271 261 255 254 253 247 227 226 223 219 215 211 210 212 214 218 218 217 215 207 193 186 185 186 184 180 187 188 187 184 172 177 178 180 181 180 182 190 190 184 180 175 177 183 187 184 180 182 188 194 199 203 211 207 140 128 137 178 263 269 274 269 263 244 246 265 277 276 276 277 275 267 262 260 254 255 264 273 279 287
297 296 291 282 277 274 269 261 256 257 255 233 229 223 218 217 211 214 214 215 220 219 218 212 198 194 187 184 183 179 186 189 189 190 189 182 183 181 178 178 178 180 183 185 188 184 183 187 177 175 182 190 203 208 206 205 200 174 130 200 230 140 218 256 272 275 271 288 266 252 267 279 280 287 288 271 267 269 263 248 241 242 257 276 298
295 283 279 282 277 272 268 266 257 261 261 241 232 230 222 216 211 213 214 216 219 219 218 206 192 195 191 194 191 182 186 184 189 192 191 182 183 183 177 175 177 181 181 177 173 191 188 182 181 183 188 202 207 211 214 213 212 177 132 216 190 127 225 228 248 261 289 287 276 232 211 260 301 297 294 290 261 246 226 228 231 242 255 283 291
276 285 282 277 274 266 262 260 263 260 262 254 237 234 227 221 216 215 216 218 220 218 212 210 206 190 194 201 198 194 191 185 191 194 191 186 185 184 181 176 181 185 184 169 169 169 182 185 195 196 201 201 200 145 126 148 138 124 127 172 171 202 232 234 230 252 286 270 195 104 334 286 316 297 330 324 288 191 224 150 188 303 294 296 291